Regional Weather Roundup
Issued by NWS

Home | Current Version | Previous Version | Graphics & Text | Print | Product List | Glossary On
Versions: 1 2 3 4 5 6 7 8 9 10 11 12 13 14 15 16 17 18 19 20 21 22 23 24 25 26 27
000
ASUS45 KBOU 290810
RWRCO

WEATHER ROUNDUP FOR COLORADO
NATIONAL WEATHER SERVICE DENVER/BOULDER CO
200 AM MDT THU SEP 29 2016

NOTE: "FAIR" INDICATES FEW OR NO CLOUDS BELOW 12000 FEET WITH NO
SIGNIFICANT WEATHER AND/OR OBSTRUCTIONS TO VISIBILITY.

COZ001>005-013-030-031-290900-
...NORTHWEST COLORADO...

CITY           SKY/WX    TMP DP  RH WIND       PRES   REMARKS
CRAIG          FAIR      44  37  76 SW5       30.34R
HAYDEN         FAIR      54  32  43 SE3       30.35R
MEEKER         FAIR      51  39  63 NE3       30.37R
MOUNT WERNER   NOT AVBL
STEAMBOAT SPGS FAIR      51  33  50 NW3       30.38R
WALDEN           N/A     48  28  46 SE6       30.48S
$$

COZ006>008-011-290900-
...WEST CENTRAL VALLEYS...

CITY           SKY/WX    TMP DP  RH WIND       PRES   REMARKS
GRAND JUNCTION FAIR      67  40  37 N3        30.26R
MONTROSE       MOCLDY    61  41  47 S6        30.34F
EAGLE          FAIR      48  30  49 E6        30.40R
RIFLE          FAIR      56  42  59 CALM      30.31R
DELTA          NOT AVBL
NUCLA          FAIR      59  39  47 E6        30.39R
$$

COZ017>023-064>068-290900-
...SOUTHWEST COLORADO...

CITY           SKY/WX    TMP DP  RH WIND       PRES   REMARKS
DURANGO        FAIR      59  42  53 NE6       30.43R
CORTEZ         MOCLDY    57  48  72 NE7       30.37S
PAGOSA SPRINGS FAIR      48  32  54 CALM      30.50R
TELLURIDE      MOCLDY    55  32  42 CALM      30.55R
WOLF CREEK PAS FAIR      41  25  52 MISG      30.76S
$$

COZ009-010-012-014-032>034-037-058>063-290900-
...CENTRAL COLORADO...

CITY           SKY/WX    TMP DP  RH WIND       PRES   REMARKS
ASPEN          FAIR      51  31  46 SW9       30.44S
BUENA VISTA    FAIR      42  26  53 W7        30.53S
COPPER MTN     FAIR      46  21  36 S20       30.71S
BERTHOUD PASS  FAIR      37  25  60 SE6       30.76R
COTTONWOOD PAS FAIR      52  23  32 W5        30.62S
GUNNISON       FAIR      46  30  53 N13       30.48R
KREMMLING      FAIR      41  27  56 CALM      30.46R
LEADVILLE      FAIR      42  24  49 CALM      30.61S
MONARCH PASS   FAIR      43  21  42 S12G18    30.84S
SALIDA         FAIR      51  30  45 W8        30.57S
SUNLIGHT       FAIR      50  32  50 SW5       30.67R
WILKERSON PASS FAIR      41  27  56 SW6       30.73F
$$

COZ069>075-290900-
...SAN LUIS VALLEY/SANGRE DE CRISTO MOUNTAINS...

CITY           SKY/WX    TMP DP  RH WIND       PRES   REMARKS
ALAMOSA        FAIR      42  24  49 S6        30.48S
LA VETA PASS   FAIR      46  23  39 MISG      30.63S
SAGUACHE       NOT AVBL
$$

COZ035-036-038>040-290900-
...NORTHERN COLORADO FRONT RANGE...

CITY           SKY/WX    TMP DP  RH WIND       PRES   REMARKS
DENVER INTL AP FAIR      54  32  43 S14       30.37R
DMNS CITY PARK   N/A     54  39  56 SW2       30.37S
AURORA         NOT AVBL
FRONT RANGE AP NOT AVBL
ERIE MUNI ARPT FAIR      52  38  57 CALM      30.35S
BOULDER MUN AP FAIR      57  37  47 CALM      30.35S
CENTENNIAL     FAIR      51  35  54 S7        30.39F
BROOMFIELD     FAIR      54  36  50 W6        30.38R
FORT COLLINS   FAIR      54  39  58 NE8       30.35F
LONGMONT       FAIR      56  39  53 N3        30.36S
$$

COZ041-046-047-076>085-087-088-290900-
...PIKES PEAK/PALMER DIVIDE AND SOUTHERN FOOTHILLS...

CITY           SKY/WX    TMP DP  RH WIND       PRES   REMARKS
COLO. SPRINGS  FAIR      57  36  45 E5        30.45S
A. F. ACADEMY  NOT AVBL
SCHRIEVER AFB  NOT AVBL
ELLICOTT       NOT AVBL
FALCON         FAIR      50  36  58 CALM      30.48S
FORT CARSON    NOT AVBL
LIMON          FAIR      44  38  79 SE5       30.43R
MONUMENT HILL  FAIR      50  36  57 S14       30.47R
TRINIDAD       FAIR      53  29  39 SW7       30.40S
$$

COZ042>045-048>051-090-091-290900-
...NORTHEAST COLORADO...

CITY           SKY/WX    TMP DP  RH WIND       PRES   REMARKS
GREELEY ARPT   FAIR     N/A N/A N/A CALM      30.35S
AKRON          FAIR      52  40  63 S13       30.39R
BURLINGTON     FAIR      49  41  74 S9        30.40R
WRAY           FAIR      50  36  57 CALM      30.38S
STERLING       FAIR      54  43  66 S8        30.35S
HOLYOKE        FAIR      43  37  81 CALM      30.38F
FORT MORGAN    FAIR      52  39  63 S6        30.39S
$$

COZ086-089-092>099-290900-
...SOUTHEAST COLORADO...

CITY           SKY/WX    TMP DP  RH WIND       PRES   REMARKS
PUEBLO         FAIR      58  37  45 E9        30.34R
LA JUNTA       FAIR      55  42  61 E10       30.34S
LAMAR          FAIR      48  39  71 E5        30.35S
SPRINGFIELD      N/A     50  42  74 S3        30.39R
$$




USA.gov is the U.S. government's official web portal to all federal, state and local government web resources and services.